Flag for Poland Weather past 2 weeks in Rybnik, Poland

Now
55 °F

Passing clouds.


Feels Like: 55 °F
Forecast: 53 / 62 °F
Wind: 1 mph from Northwest

Location: Katowice Airport

Current Time: May 26, 2015 at 12:23:10 AM

Latest Report: May 26, 2015 at 12:00 AM


Visibility: 4 mi

Pressure: 29.80 "Hg

Humidity: 94%

Dew point: 54 °F

Location of RybnikLocation

Historic Weather in Rybnik — Graph

°F

Rybnik temperature yesterday

Maximum temperature yesterday: 63 °F (at 12:30 PM)
Minimum temperature yesterday: 46 °F (at 2:30 AM)
Average temperature yesterday: 56 °F

Past Weeks' High & Low Weather Summary

 TemperatureHumidityPressure
High75 °F (May 19, 1:00 PM)100% (May 20, 4:30 AM)30.39 "Hg (May 20, 4:30 AM)
Low34 °F (May 15, 3:30 AM)25% (May 12, 2:30 PM)29.74 "Hg (May 14, 6:00 AM)
Average55 °F71%30.03 "Hg
* Reported May 10 11:00 PM — May 25 11:00 PM, Rybnik, Weather by CustomWeather, © 2015

Note: Actual official high and low records may vary slightly from our data, if they occured in-between our weather recording intervals... More about our weather records

Advertising

Rybnik weather history for previous 24 hours

 ConditionsComfort  
Time TempWeatherWind HumidityBarometerVisibility
11:00 PM
Mon, May 25
55 °FPassing clouds.1 mph94%29.80 "Hg4 mi
10:30 PM55 °FPassing clouds.2 mph94%29.83 "Hg4 mi
10:00 PM55 °FPassing clouds.2 mph94%29.83 "Hg4 mi
9:30 PM55 °FLight rain. Partly sunny.2 mph94%29.83 "Hg4 mi
9:00 PM55 °FPartly sunny.2 mph100%29.83 "Hg5 mi
8:30 PM57 °FPartly sunny.3 mph88%29.83 "HgN/A
8:00 PM57 °FRain. Partly sunny.5 mph88%29.83 "Hg4 mi
7:30 PM59 °FLight rain. Partly sunny.5 mph82%29.83 "HgN/A
7:00 PM59 °FPartly sunny.3 mph82%29.83 "HgN/A
6:30 PM59 °FPartly sunny.5 mph82%29.83 "HgN/A
6:00 PM61 °FPartly sunny.6 mph77%29.86 "HgN/A
5:30 PM61 °FPartly sunny.6 mph72%29.86 "HgN/A
5:00 PM61 °FPartly sunny.7 mph72%29.86 "HgN/A
4:30 PM61 °FPartly sunny.6 mph72%29.86 "HgN/A
4:00 PM61 °FPartly sunny.7 mph72%29.86 "HgN/A
3:30 PM61 °FPartly sunny.8 mph72%29.86 "HgN/A
3:00 PM61 °FPartly sunny.9 mph72%29.89 "HgN/A
2:30 PM61 °FPartly sunny.9 mph72%29.89 "HgN/A
2:00 PM61 °FBroken clouds.8 mph72%29.92 "HgN/A
1:30 PM61 °FPartly sunny.7 mph72%29.92 "HgN/A
1:00 PM61 °FPartly sunny.12 mph72%29.92 "HgN/A
12:30 PM63 °FPartly sunny.10 mph68%29.92 "HgN/A
12:00 PM61 °FScattered clouds.9 mph77%29.92 "HgN/A
11:30 AM61 °FScattered clouds.9 mph72%29.95 "HgN/A
11:00 AM61 °FScattered clouds.10 mph72%29.95 "HgN/A
10:30 AM59 °FPartly sunny.7 mph77%29.95 "HgN/A
10:00 AM59 °FPartly sunny.8 mph77%29.95 "HgN/A
9:30 AM57 °FPartly sunny.8 mph82%29.95 "HgN/A
9:00 AM57 °FPartly sunny.8 mph82%29.95 "HgN/A
8:30 AM57 °FPartly sunny.6 mph82%29.98 "HgN/A
8:00 AM55 °FPartly sunny.6 mph88%29.98 "HgN/A
7:30 AM54 °FPartly sunny.3 mph94%29.98 "HgN/A
7:00 AM54 °FPartly sunny.2 mph88%29.98 "Hg5 mi
6:30 AM54 °FPartly sunny.5 mph94%29.98 "Hg5 mi
6:00 AM52 °FPartly sunny.2 mph94%29.98 "Hg5 mi
5:30 AM50 °FPassing clouds.2 mph100%29.98 "Hg5 mi
5:00 AM50 °FPassing clouds.1 mph100%29.98 "Hg5 mi
4:30 AM50 °FPassing clouds.No wind94%30.01 "Hg5 mi
4:00 AM48 °FPassing clouds.No wind100%30.01 "Hg4 mi
3:30 AM48 °FPassing clouds.1 mph100%30.01 "Hg4 mi
3:00 AM46 °FFog.1 mph100%30.01 "Hg3 mi
2:30 AM46 °FFog.No wind100%30.01 "Hg1 mi
2:00 AM50 °FCool.No wind94%30.04 "Hg1 mi
1:30 AM50 °FCool.No wind94%30.01 "Hg1 mi
1:00 AM52 °FCool.No wind94%30.04 "Hg1 mi
12:30 AM52 °FClear.No wind94%30.04 "Hg4 mi
12:00 AM52 °FPassing clouds.No wind100%30.04 "HgN/A
Weather by CustomWeather, © 2015

See weather overviewHow to use our weather pages